Year,Month,Day,Hour,Minute,Value (Times are PST for temperature in C)
2014,05,01,00,00,12.80
2014,05,01,00,01,12.80
2014,05,01,00,02,12.80
2014,05,01,00,03,12.80
2014,05,01,00,04,12.80
2014,05,01,00,05,12.80
2014,05,01,00,06,12.70
2014,05,01,00,07,12.70
2014,05,01,00,08,12.70
2014,05,01,00,09,12.70
2014,05,01,00,10,12.60
2014,05,01,00,11,12.60
2014,05,01,00,12,12.60
2014,05,01,00,13,12.50
2014,05,01,00,14,12.50
2014,05,01,00,15,12.50
2014,05,01,00,16,12.50
2014,05,01,00,17,12.40
2014,05,01,00,18,12.40
2014,05,01,00,19,12.40
2014,05,01,00,20,12.40
2014,05,01,00,21,12.30
2014,05,01,00,22,12.30
2014,05,01,00,23,12.30
2014,05,01,00,24,12.30
2014,05,01,00,25,12.30
2014,05,01,00,26,12.30
2014,05,01,00,27,12.30
2014,05,01,00,28,12.30
2014,05,01,00,29,12.30
2014,05,01,00,30,12.30
2014,05,01,00,31,12.30
2014,05,01,00,32,12.30
2014,05,01,00,33,12.30
2014,05,01,00,34,12.30
2014,05,01,00,35,12.30
2014,05,01,00,36,12.30
2014,05,01,00,37,12.30
2014,05,01,00,38,12.30
2014,05,01,00,39,12.30
2014,05,01,00,40,12.30
2014,05,01,00,41,12.20
2014,05,01,00,42,12.20
2014,05,01,00,43,12.20
2014,05,01,00,44,12.20
2014,05,01,00,45,12.20
2014,05,01,00,46,12.20
2014,05,01,00,47,12.20
2014,05,01,00,48,12.10
2014,05,01,00,49,12.10
2014,05,01,00,50,12.10
2014,05,01,00,51,12.10
2014,05,01,00,52,12.10
2014,05,01,00,53,12.10
2014,05,01,00,54,12.10
2014,05,01,00,55,12.10
2014,05,01,00,56,12.10
2014,05,01,00,57,12.00
2014,05,01,00,58,12.00
2014,05,01,00,59,12.00
2014,05,01,01,00,12.00
2014,05,01,01,01,12.00
2014,05,01,01,02,12.00
2014,05,01,01,03,11.90
2014,05,01,01,04,11.90
2014,05,01,01,05,11.90
2014,05,01,01,06,11.90
2014,05,01,01,07,11.90
2014,05,01,01,08,11.80
2014,05,01,01,09,11.80
2014,05,01,01,10,11.80
2014,05,01,01,11,11.80
2014,05,01,01,12,11.80
2014,05,01,01,13,11.80
2014,05,01,01,14,11.80
2014,05,01,01,15,11.80
2014,05,01,01,16,11.80
2014,05,01,01,17,11.80
2014,05,01,01,18,11.70
2014,05,01,01,19,11.70
2014,05,01,01,20,11.70
2014,05,01,01,21,11.70
2014,05,01,01,22,11.70
2014,05,01,01,23,11.70
2014,05,01,01,24,11.70
2014,05,01,01,25,11.70
2014,05,01,01,26,11.70
2014,05,01,01,27,11.70
2014,05,01,01,28,11.70
2014,05,01,01,29,11.70
2014,05,01,01,30,11.70
2014,05,01,01,31,11.70
2014,05,01,01,32,11.70
2014,05,01,01,33,11.70
2014,05,01,01,34,11.70
2014,05,01,01,35,11.70
2014,05,01,01,36,11.70
2014,05,01,01,37,11.70
2014,05,01,01,38,11.70
2014,05,01,01,39,11.70
2014,05,01,01,40,11.70
2014,05,01,01,41,11.70
2014,05,01,01,42,11.70
2014,05,01,01,43,11.70
2014,05,01,01,44,11.70
2014,05,01,01,45,11.70
2014,05,01,01,46,11.80
2014,05,01,01,47,11.80
2014,05,01,01,48,11.80
2014,05,01,01,49,11.80
2014,05,01,01,50,11.80
2014,05,01,01,51,11.80
2014,05,01,01,52,11.80
2014,05,01,01,53,11.90
2014,05,01,01,54,11.90
2014,05,01,01,55,12.00
2014,05,01,01,56,12.10
2014,05,01,01,57,12.10
2014,05,01,01,58,12.20
2014,05,01,01,59,12.20
2014,05,01,02,00,12.20
2014,05,01,02,01,12.30
2014,05,01,02,02,12.30
2014,05,01,02,03,12.30
2014,05,01,02,04,12.30
2014,05,01,02,05,12.30
2014,05,01,02,06,12.30
2014,05,01,02,07,12.30
2014,05,01,02,08,12.30
2014,05,01,02,09,12.30
2014,05,01,02,10,12.30
2014,05,01,02,11,12.40
2014,05,01,02,12,12.40
2014,05,01,02,13,12.40
2014,05,01,02,14,12.40
2014,05,01,02,15,12.40
2014,05,01,02,16,12.40
2014,05,01,02,17,12.40
2014,05,01,02,18,12.40
2014,05,01,02,19,12.40
2014,05,01,02,20,12.40
2014,05,01,02,21,12.40
2014,05,01,02,22,12.40
2014,05,01,02,23,12.40
2014,05,01,02,24,12.40
2014,05,01,02,25,12.40
2014,05,01,02,26,12.40
2014,05,01,02,27,12.40
2014,05,01,02,28,12.40
2014,05,01,02,29,12.30
2014,05,01,02,30,12.30
2014,05,01,02,31,12.30
2014,05,01,02,32,12.30
2014,05,01,02,33,12.30
2014,05,01,02,34,12.30
2014,05,01,02,35,12.30
2014,05,01,02,36,12.30
2014,05,01,02,37,12.30
2014,05,01,02,38,12.30
2014,05,01,02,39,12.30
2014,05,01,02,40,12.30
2014,05,01,02,41,12.30
2014,05,01,02,42,12.30
2014,05,01,02,43,12.30
2014,05,01,02,44,12.30
2014,05,01,02,45,12.30
2014,05,01,02,46,12.30
2014,05,01,02,47,12.40
2014,05,01,02,48,12.40
2014,05,01,02,49,12.40
2014,05,01,02,50,12.40
2014,05,01,02,51,12.40
2014,05,01,02,52,12.50
2014,05,01,02,53,12.50
2014,05,01,02,54,12.50
2014,05,01,02,55,12.50
2014,05,01,02,56,12.50
2014,05,01,02,57,12.50
2014,05,01,02,58,12.50
2014,05,01,02,59,12.50
2014,05,01,03,00,12.50
2014,05,01,03,01,12.50
2014,05,01,03,02,12.50
2014,05,01,03,03,12.60
2014,05,01,03,04,12.60
2014,05,01,03,05,12.60
2014,05,01,03,06,12.60
2014,05,01,03,07,12.60
2014,05,01,03,08,12.60
2014,05,01,03,09,12.60
2014,05,01,03,10,12.60
2014,05,01,03,11,12.60
2014,05,01,03,12,12.60
2014,05,01,03,13,12.60
2014,05,01,03,14,12.60
2014,05,01,03,15,12.60
2014,05,01,03,16,12.60
2014,05,01,03,17,12.60
2014,05,01,03,18,12.70
2014,05,01,03,19,12.70
2014,05,01,03,20,12.70
2014,05,01,03,21,12.70
2014,05,01,03,22,12.80
2014,05,01,03,23,12.80
2014,05,01,03,24,12.80
2014,05,01,03,25,12.80
2014,05,01,03,26,12.80
2014,05,01,03,27,12.80
2014,05,01,03,28,12.80
2014,05,01,03,29,12.80
2014,05,01,03,30,12.80
2014,05,01,03,31,12.80
2014,05,01,03,32,12.80
2014,05,01,03,33,12.80
2014,05,01,03,34,12.80
2014,05,01,03,35,12.80
2014,05,01,03,36,12.80
2014,05,01,03,37,12.80
2014,05,01,03,38,12.80
2014,05,01,03,39,12.80
2014,05,01,03,40,12.80
2014,05,01,03,41,12.80
2014,05,01,03,42,12.80
2014,05,01,03,43,12.80
2014,05,01,03,44,12.80
2014,05,01,03,45,12.80
2014,05,01,03,46,12.80
2014,05,01,03,47,12.80
2014,05,01,03,48,12.80
2014,05,01,03,49,12.80
2014,05,01,03,50,12.80
2014,05,01,03,51,12.80
2014,05,01,03,52,12.80
2014,05,01,03,53,12.80
2014,05,01,03,54,12.80
2014,05,01,03,55,12.80
2014,05,01,03,56,12.80
2014,05,01,03,57,12.80
2014,05,01,03,58,12.80
2014,05,01,03,59,12.80
2014,05,01,04,00,12.80
2014,05,01,04,01,12.80
2014,05,01,04,02,12.90
2014,05,01,04,03,12.90
2014,05,01,04,04,12.90
2014,05,01,04,05,12.90
2014,05,01,04,06,12.90
2014,05,01,04,07,13.00
2014,05,01,04,08,13.00
2014,05,01,04,09,13.00
2014,05,01,04,10,13.00
2014,05,01,04,11,13.00
2014,05,01,04,12,13.00
2014,05,01,04,13,13.00
2014,05,01,04,14,12.90
2014,05,01,04,15,12.90
2014,05,01,04,16,12.90
2014,05,01,04,17,12.90
2014,05,01,04,18,12.90
2014,05,01,04,19,12.90
2014,05,01,04,20,12.90
2014,05,01,04,21,12.90
2014,05,01,04,22,12.90
2014,05,01,04,23,12.80
2014,05,01,04,24,12.80
2014,05,01,04,25,12.80
2014,05,01,04,26,12.80
2014,05,01,04,27,12.80
2014,05,01,04,28,12.80
2014,05,01,04,29,12.80
2014,05,01,04,30,12.80
2014,05,01,04,31,12.80
2014,05,01,04,32,12.80
2014,05,01,04,33,12.80
2014,05,01,04,34,12.80
2014,05,01,04,35,12.80
2014,05,01,04,36,12.80
2014,05,01,04,37,12.80
2014,05,01,04,38,12.80
2014,05,01,04,39,12.80
2014,05,01,04,40,12.80
2014,05,01,04,41,12.80
2014,05,01,04,42,12.80
2014,05,01,04,43,12.80
2014,05,01,04,44,12.80
2014,05,01,04,45,12.80
2014,05,01,04,46,12.80
2014,05,01,04,47,12.80
2014,05,01,04,48,12.80
2014,05,01,04,49,12.80
2014,05,01,04,50,12.80
2014,05,01,04,51,12.70
2014,05,01,04,52,12.70
2014,05,01,04,53,12.80
2014,05,01,04,54,12.80
2014,05,01,04,55,12.80
2014,05,01,04,56,12.80
2014,05,01,04,57,12.80
2014,05,01,04,58,12.80
2014,05,01,04,59,12.80
2014,05,01,05,00,12.80
2014,05,01,05,01,12.80
2014,05,01,05,02,12.80
2014,05,01,05,03,12.80
2014,05,01,05,04,12.80
2014,05,01,05,05,12.70
2014,05,01,05,06,12.70
2014,05,01,05,07,12.70
2014,05,01,05,08,12.70
2014,05,01,05,09,12.70
2014,05,01,05,10,12.70
2014,05,01,05,11,12.60
2014,05,01,05,12,12.60
2014,05,01,05,13,12.60
2014,05,01,05,14,12.60
2014,05,01,05,15,12.60
2014,05,01,05,16,12.60
2014,05,01,05,17,12.60
2014,05,01,05,18,12.60
2014,05,01,05,19,12.60
2014,05,01,05,20,12.70
2014,05,01,05,21,12.70
2014,05,01,05,22,12.70
2014,05,01,05,23,12.70
2014,05,01,05,24,12.70
2014,05,01,05,25,12.70
2014,05,01,05,26,12.70
2014,05,01,05,27,12.70
2014,05,01,05,28,12.70
2014,05,01,05,29,12.60
2014,05,01,05,30,12.60
2014,05,01,05,31,12.60
2014,05,01,05,32,12.60
2014,05,01,05,33,12.60
2014,05,01,05,34,12.60
2014,05,01,05,35,12.60
2014,05,01,05,36,12.60
2014,05,01,05,37,12.50
2014,05,01,05,38,12.50
2014,05,01,05,39,12.50
2014,05,01,05,40,12.50
2014,05,01,05,41,12.50
2014,05,01,05,42,12.50
2014,05,01,05,43,12.40
2014,05,01,05,44,12.40
2014,05,01,05,45,12.40
2014,05,01,05,46,12.40
2014,05,01,05,47,12.40
2014,05,01,05,48,12.40
2014,05,01,05,49,12.40
2014,05,01,05,50,12.30
2014,05,01,05,51,12.30
2014,05,01,05,52,12.30
2014,05,01,05,53,12.30
2014,05,01,05,54,12.30
2014,05,01,05,55,12.30
2014,05,01,05,56,12.30
2014,05,01,05,57,12.30
2014,05,01,05,58,12.30
2014,05,01,05,59,12.30
2014,05,01,06,00,12.30
2014,05,01,06,01,12.30
2014,05,01,06,02,12.30
2014,05,01,06,03,12.30
2014,05,01,06,04,12.30
2014,05,01,06,05,12.30
2014,05,01,06,06,12.30
2014,05,01,06,07,12.30
2014,05,01,06,08,12.30
2014,05,01,06,09,12.30
2014,05,01,06,10,12.30
2014,05,01,06,11,12.30
2014,05,01,06,12,12.30
2014,05,01,06,13,12.30
2014,05,01,06,14,12.30
2014,05,01,06,15,12.30
2014,05,01,06,16,12.30
2014,05,01,06,17,12.30
2014,05,01,06,18,12.30
2014,05,01,06,19,12.30
2014,05,01,06,20,12.20
2014,05,01,06,21,12.20
2014,05,01,06,22,12.20
2014,05,01,06,23,12.20
2014,05,01,06,24,12.20
2014,05,01,06,25,12.20
2014,05,01,06,26,12.30
2014,05,01,06,27,12.30
2014,05,01,06,28,12.30
2014,05,01,06,29,12.30
2014,05,01,06,30,12.30
2014,05,01,06,31,12.40
2014,05,01,06,32,12.40
2014,05,01,06,33,12.50
2014,05,01,06,34,12.50
2014,05,01,06,35,12.50
2014,05,01,06,36,12.50
2014,05,01,06,37,12.60
2014,05,01,06,38,12.60
2014,05,01,06,39,12.60
2014,05,01,06,40,12.60
2014,05,01,06,41,12.60
2014,05,01,06,42,12.70
2014,05,01,06,43,12.70
2014,05,01,06,44,12.70
2014,05,01,06,45,12.70
2014,05,01,06,46,12.70
2014,05,01,06,47,12.70
2014,05,01,06,48,12.70
2014,05,01,06,49,12.70
2014,05,01,06,50,12.80
2014,05,01,06,51,12.80
2014,05,01,06,52,12.80
2014,05,01,06,53,12.80
2014,05,01,06,54,12.80
2014,05,01,06,55,12.80
2014,05,01,06,56,12.80
2014,05,01,06,57,12.90
2014,05,01,06,58,12.90
2014,05,01,06,59,12.90
2014,05,01,07,00,13.00
2014,05,01,07,01,13.00
2014,05,01,07,02,13.00
2014,05,01,07,03,13.00
2014,05,01,07,04,13.10
2014,05,01,07,05,13.10
2014,05,01,07,06,13.20
2014,05,01,07,07,13.20
2014,05,01,07,08,13.20
2014,05,01,07,09,13.30
2014,05,01,07,10,13.30
2014,05,01,07,11,13.30
2014,05,01,07,12,13.30
2014,05,01,07,13,13.30
2014,05,01,07,14,13.30
2014,05,01,07,15,13.40
2014,05,01,07,16,13.40
2014,05,01,07,17,13.40
2014,05,01,07,18,13.40
2014,05,01,07,19,13.50
2014,05,01,07,20,13.50
2014,05,01,07,21,13.50
2014,05,01,07,22,13.50
2014,05,01,07,23,13.50
2014,05,01,07,24,13.50
2014,05,01,07,25,13.50
2014,05,01,07,26,13.50
2014,05,01,07,27,13.50
2014,05,01,07,28,13.50
2014,05,01,07,29,13.50
2014,05,01,07,30,13.50
2014,05,01,07,31,13.50
2014,05,01,07,32,13.60
2014,05,01,07,33,13.60
2014,05,01,07,34,13.60
2014,05,01,07,35,13.60
2014,05,01,07,36,13.60
2014,05,01,07,37,13.60
2014,05,01,07,38,13.60
2014,05,01,07,39,13.60
2014,05,01,07,40,13.70
2014,05,01,07,41,13.70
2014,05,01,07,42,13.70
2014,05,01,07,43,13.70
2014,05,01,07,44,13.70
2014,05,01,07,45,13.70
2014,05,01,07,46,13.70
2014,05,01,07,47,13.70
2014,05,01,07,48,13.70
2014,05,01,07,49,13.70
2014,05,01,07,50,13.80
2014,05,01,07,51,13.80
2014,05,01,07,52,13.80
2014,05,01,07,53,13.80
2014,05,01,07,54,13.80
2014,05,01,07,55,13.80
2014,05,01,07,56,13.90
2014,05,01,07,57,13.90
2014,05,01,07,58,13.90
2014,05,01,07,59,13.90
2014,05,01,08,00,13.90
2014,05,01,08,01,14.00
2014,05,01,08,02,14.00
2014,05,01,08,03,14.00
2014,05,01,08,04,14.00
2014,05,01,08,05,14.10
2014,05,01,08,06,14.10
2014,05,01,08,07,14.20
2014,05,01,08,08,14.20
2014,05,01,08,09,14.20
2014,05,01,08,10,14.20
2014,05,01,08,11,14.20
2014,05,01,08,12,14.20
2014,05,01,08,13,14.30
2014,05,01,08,14,14.30
2014,05,01,08,15,14.40
2014,05,01,08,16,14.40
2014,05,01,08,17,14.40
2014,05,01,08,18,14.50
2014,05,01,08,19,14.50
2014,05,01,08,20,14.60
2014,05,01,08,21,14.60
2014,05,01,08,22,14.70
2014,05,01,08,23,14.70
2014,05,01,08,24,14.70
2014,05,01,08,25,14.80
2014,05,01,08,26,14.80
2014,05,01,08,27,14.80
2014,05,01,08,28,14.80
2014,05,01,08,29,14.80
2014,05,01,08,30,14.90
2014,05,01,08,31,14.90
2014,05,01,08,32,15.00
2014,05,01,08,33,15.00
2014,05,01,08,34,15.10
2014,05,01,08,35,15.10
2014,05,01,08,36,15.20
2014,05,01,08,37,15.20
2014,05,01,08,38,15.30
2014,05,01,08,39,15.30
2014,05,01,08,40,15.30
2014,05,01,08,41,15.40
2014,05,01,08,42,15.40
2014,05,01,08,43,15.50
2014,05,01,08,44,15.50
2014,05,01,08,45,15.60
2014,05,01,08,46,15.60
2014,05,01,08,47,15.70
2014,05,01,08,48,15.70
2014,05,01,08,49,15.80
2014,05,01,08,50,15.80
2014,05,01,08,51,15.90
2014,05,01,08,52,15.90
2014,05,01,08,53,16.00
2014,05,01,08,54,16.10
2014,05,01,08,55,16.20
2014,05,01,08,56,16.20
2014,05,01,08,57,16.30
2014,05,01,08,58,16.40
2014,05,01,08,59,16.40
2014,05,01,09,00,16.50
2014,05,01,09,01,16.60
2014,05,01,09,02,16.60
2014,05,01,09,03,16.70
2014,05,01,09,04,16.70
2014,05,01,09,05,16.70
2014,05,01,09,06,16.70
2014,05,01,09,07,16.70
2014,05,01,09,08,16.70
2014,05,01,09,09,16.70
2014,05,01,09,10,16.70
2014,05,01,09,11,16.70
2014,05,01,09,12,16.70
2014,05,01,09,13,16.70
2014,05,01,09,14,16.70
2014,05,01,09,15,16.70
2014,05,01,09,16,16.80
2014,05,01,09,17,16.90
2014,05,01,09,18,16.90
2014,05,01,09,19,16.90
2014,05,01,09,20,17.00
2014,05,01,09,21,17.00
2014,05,01,09,22,17.10
2014,05,01,09,23,17.20
2014,05,01,09,24,17.20
2014,05,01,09,25,17.20
2014,05,01,09,26,17.20
2014,05,01,09,27,17.30
2014,05,01,09,28,17.30
2014,05,01,09,29,17.30
2014,05,01,09,30,17.30
2014,05,01,09,31,17.30
2014,05,01,09,32,17.30
2014,05,01,09,33,17.30
2014,05,01,09,34,17.30
2014,05,01,09,35,17.30
2014,05,01,09,36,17.30
2014,05,01,09,37,17.30
2014,05,01,09,38,17.30
2014,05,01,09,39,17.40
2014,05,01,09,40,17.40
2014,05,01,09,41,17.50
2014,05,01,09,42,17.60
2014,05,01,09,43,17.60
2014,05,01,09,44,17.70
2014,05,01,09,45,17.70
2014,05,01,09,46,17.70
2014,05,01,09,47,17.70
2014,05,01,09,48,17.80
2014,05,01,09,49,17.70
2014,05,01,09,50,17.70
2014,05,01,09,51,17.70
2014,05,01,09,52,17.80
2014,05,01,09,53,17.80
2014,05,01,09,54,17.80
2014,05,01,09,55,17.80
2014,05,01,09,56,17.80
2014,05,01,09,57,17.90
2014,05,01,09,58,17.90
2014,05,01,09,59,17.90
2014,05,01,10,00,18.00
2014,05,01,10,01,18.10
2014,05,01,10,02,18.10
2014,05,01,10,03,18.20
2014,05,01,10,04,18.20
2014,05,01,10,05,18.20
2014,05,01,10,06,18.10
2014,05,01,10,07,18.10
2014,05,01,10,08,18.10
2014,05,01,10,09,18.10
2014,05,01,10,10,18.10
2014,05,01,10,11,18.10
2014,05,01,10,12,18.20
2014,05,01,10,13,18.20
2014,05,01,10,14,18.20
2014,05,01,10,15,18.20
2014,05,01,10,16,18.20
2014,05,01,10,17,18.20
2014,05,01,10,18,18.20
2014,05,01,10,19,18.30
2014,05,01,10,20,18.30
2014,05,01,10,21,18.40
2014,05,01,10,22,18.40
2014,05,01,10,23,18.40
2014,05,01,10,24,18.40
2014,05,01,10,25,18.40
2014,05,01,10,26,18.40
2014,05,01,10,27,18.50
2014,05,01,10,28,18.50
2014,05,01,10,29,18.60
2014,05,01,10,30,18.60
2014,05,01,10,31,18.60
2014,05,01,10,32,18.60
2014,05,01,10,33,18.60
2014,05,01,10,34,18.60
2014,05,01,10,35,18.60
2014,05,01,10,36,18.60
2014,05,01,10,37,18.60
2014,05,01,10,38,18.60
2014,05,01,10,39,18.50
2014,05,01,10,40,18.60
2014,05,01,10,41,18.60
2014,05,01,10,42,18.60
2014,05,01,10,43,18.60
2014,05,01,10,44,18.60
2014,05,01,10,45,18.70
2014,05,01,10,46,18.70
2014,05,01,10,47,18.80
2014,05,01,10,48,18.80
2014,05,01,10,49,18.80
2014,05,01,10,50,18.90
2014,05,01,10,51,18.90
2014,05,01,10,52,18.90
2014,05,01,10,53,18.90
2014,05,01,10,54,18.90
2014,05,01,10,55,18.90
2014,05,01,10,56,18.90
2014,05,01,10,57,18.90
2014,05,01,10,58,18.90
2014,05,01,10,59,18.90
2014,05,01,11,00,18.90
2014,05,01,11,01,18.90
2014,05,01,11,02,18.90
2014,05,01,11,03,18.90
2014,05,01,11,04,19.00
2014,05,01,11,05,19.10
2014,05,01,11,06,19.10
2014,05,01,11,07,19.10
2014,05,01,11,08,19.10
2014,05,01,11,09,19.10
2014,05,01,11,10,19.10
2014,05,01,11,11,19.10
2014,05,01,11,12,19.10
2014,05,01,11,13,19.20
2014,05,01,11,14,19.30
2014,05,01,11,15,19.30
2014,05,01,11,16,19.40
2014,05,01,11,17,19.40
2014,05,01,11,18,19.40
2014,05,01,11,19,19.40
2014,05,01,11,20,19.40
2014,05,01,11,21,19.40
2014,05,01,11,22,19.40
2014,05,01,11,23,19.40
2014,05,01,11,24,19.30
2014,05,01,11,25,19.30
2014,05,01,11,26,19.30
2014,05,01,11,27,19.30
2014,05,01,11,28,19.30
2014,05,01,11,29,19.30
2014,05,01,11,30,19.30
2014,05,01,11,31,19.30
2014,05,01,11,32,19.40
2014,05,01,11,33,19.30
2014,05,01,11,34,19.30
2014,05,01,11,35,19.30
2014,05,01,11,36,19.40
2014,05,01,11,37,19.40
2014,05,01,11,38,19.50
2014,05,01,11,39,19.60
2014,05,01,11,40,19.60
2014,05,01,11,41,19.70
2014,05,01,11,42,19.80
2014,05,01,11,43,19.80
2014,05,01,11,44,19.90
2014,05,01,11,45,19.90
2014,05,01,11,46,19.90
2014,05,01,11,47,19.90
2014,05,01,11,48,19.90
2014,05,01,11,49,19.90
2014,05,01,11,50,19.90
2014,05,01,11,51,19.90
2014,05,01,11,52,19.90
2014,05,01,11,53,19.90
2014,05,01,11,54,20.00
2014,05,01,11,55,20.00
2014,05,01,11,56,19.90
2014,05,01,11,57,19.90
2014,05,01,11,58,19.90
2014,05,01,11,59,19.90
2014,05,01,12,00,19.90
2014,05,01,12,01,19.90
2014,05,01,12,02,20.00
2014,05,01,12,03,20.10
2014,05,01,12,04,20.10
2014,05,01,12,05,20.10
2014,05,01,12,06,20.10
2014,05,01,12,07,20.10
2014,05,01,12,08,20.10
2014,05,01,12,09,20.10
2014,05,01,12,10,20.10
2014,05,01,12,11,20.10
2014,05,01,12,12,20.10
2014,05,01,12,13,20.10
2014,05,01,12,14,20.20
2014,05,01,12,15,20.20
2014,05,01,12,16,20.20
2014,05,01,12,17,20.20
2014,05,01,12,18,20.20
2014,05,01,12,19,20.20
2014,05,01,12,20,20.20
2014,05,01,12,21,20.20
2014,05,01,12,22,20.30
2014,05,01,12,23,20.30
2014,05,01,12,24,20.40
2014,05,01,12,25,20.50
2014,05,01,12,26,20.50
2014,05,01,12,27,20.50
2014,05,01,12,28,20.50
2014,05,01,12,29,20.50
2014,05,01,12,30,20.50
2014,05,01,12,31,20.50
2014,05,01,12,32,20.50
2014,05,01,12,33,20.60
2014,05,01,12,34,20.60
2014,05,01,12,35,20.60
2014,05,01,12,36,20.60
2014,05,01,12,37,20.60
2014,05,01,12,38,20.60
2014,05,01,12,39,20.60
2014,05,01,12,40,20.60
2014,05,01,12,41,20.60
2014,05,01,12,42,20.60
2014,05,01,12,43,20.70
2014,05,01,12,44,20.70
2014,05,01,12,45,20.80
2014,05,01,12,46,20.80
2014,05,01,12,47,20.90
2014,05,01,12,48,20.90
2014,05,01,12,49,20.90
2014,05,01,12,50,20.90
2014,05,01,12,51,21.00
2014,05,01,12,52,21.00
2014,05,01,12,53,21.10
2014,05,01,12,54,21.10
2014,05,01,12,55,21.10
2014,05,01,12,56,21.10
2014,05,01,12,57,21.10
2014,05,01,12,58,21.20
2014,05,01,12,59,21.20
2014,05,01,13,00,21.20
2014,05,01,13,01,21.30
2014,05,01,13,02,21.30
2014,05,01,13,03,21.30
2014,05,01,13,04,21.30
2014,05,01,13,05,21.30
2014,05,01,13,06,21.30
2014,05,01,13,07,21.30
2014,05,01,13,08,21.40
2014,05,01,13,09,21.40
2014,05,01,13,10,21.60
2014,05,01,13,11,21.60
2014,05,01,13,12,21.60
2014,05,01,13,13,21.60
2014,05,01,13,14,21.60
2014,05,01,13,15,21.60
2014,05,01,13,16,21.60
2014,05,01,13,17,21.70
2014,05,01,13,18,21.70
2014,05,01,13,19,21.80
2014,05,01,13,20,21.90
2014,05,01,13,21,22.00
2014,05,01,13,22,22.00
2014,05,01,13,23,22.10
2014,05,01,13,24,22.20
2014,05,01,13,25,22.20
2014,05,01,13,26,22.30
2014,05,01,13,27,22.30
2014,05,01,13,28,22.30
2014,05,01,13,29,22.20
2014,05,01,13,30,22.20
2014,05,01,13,31,22.20
2014,05,01,13,32,22.10
2014,05,01,13,33,22.10
2014,05,01,13,34,22.10
2014,05,01,13,35,22.00
2014,05,01,13,36,22.00
2014,05,01,13,37,22.10
2014,05,01,13,38,22.10
2014,05,01,13,39,22.10
2014,05,01,13,40,22.10
2014,05,01,13,41,22.10
2014,05,01,13,42,22.10
2014,05,01,13,43,22.10
2014,05,01,13,44,22.20
2014,05,01,13,45,22.20
2014,05,01,13,46,22.20
2014,05,01,13,47,22.30
2014,05,01,13,48,22.30
2014,05,01,13,49,22.40
2014,05,01,13,50,22.40
2014,05,01,13,51,22.50
2014,05,01,13,52,22.60
2014,05,01,13,53,22.60
2014,05,01,13,54,22.70
2014,05,01,13,55,22.80
2014,05,01,13,56,22.80
2014,05,01,13,57,22.80
2014,05,01,13,58,22.90
2014,05,01,13,59,22.90
2014,05,01,14,00,22.90
2014,05,01,14,01,22.90
2014,05,01,14,02,22.90
2014,05,01,14,03,22.90
2014,05,01,14,04,22.90
2014,05,01,14,05,22.90
2014,05,01,14,06,22.90
2014,05,01,14,07,22.90
2014,05,01,14,08,22.90
2014,05,01,14,09,23.00
2014,05,01,14,10,23.10
2014,05,01,14,11,23.10
2014,05,01,14,12,23.20
2014,05,01,14,13,23.20
2014,05,01,14,14,23.20
2014,05,01,14,15,23.30
2014,05,01,14,16,23.40
2014,05,01,14,17,23.40
2014,05,01,14,18,23.50
2014,05,01,14,19,23.60
2014,05,01,14,20,23.60
2014,05,01,14,21,23.60
2014,05,01,14,22,23.60
2014,05,01,14,23,23.50
2014,05,01,14,24,23.40
2014,05,01,14,25,23.40
2014,05,01,14,26,23.40
2014,05,01,14,27,23.40
2014,05,01,14,28,23.40
2014,05,01,14,29,23.30
2014,05,01,14,30,23.30
2014,05,01,14,31,23.30
2014,05,01,14,32,23.30
2014,05,01,14,33,23.30
2014,05,01,14,34,23.30
2014,05,01,14,35,23.30
2014,05,01,14,36,23.30
2014,05,01,14,37,23.20
2014,05,01,14,38,23.20
2014,05,01,14,39,23.10
2014,05,01,14,40,23.10
2014,05,01,14,41,23.10
2014,05,01,14,42,23.10
2014,05,01,14,43,23.10
2014,05,01,14,44,23.00
2014,05,01,14,45,22.90
2014,05,01,14,46,22.90
2014,05,01,14,47,22.90
2014,05,01,14,48,22.90
2014,05,01,14,49,22.90
2014,05,01,14,50,22.90
2014,05,01,14,51,23.00
2014,05,01,14,52,23.10
2014,05,01,14,53,23.10
2014,05,01,14,54,23.10
2014,05,01,14,55,23.10
2014,05,01,14,56,23.10
2014,05,01,14,57,23.10
2014,05,01,14,58,23.10
2014,05,01,14,59,23.20
2014,05,01,15,00,23.20
2014,05,01,15,01,23.20
2014,05,01,15,02,23.20
2014,05,01,15,03,23.30
2014,05,01,15,04,23.30
2014,05,01,15,05,23.30
2014,05,01,15,06,23.30
2014,05,01,15,07,23.40
2014,05,01,15,08,23.40
2014,05,01,15,09,23.50
2014,05,01,15,10,23.60
2014,05,01,15,11,23.60
2014,05,01,15,12,23.60
2014,05,01,15,13,23.60
2014,05,01,15,14,23.70
2014,05,01,15,15,23.70
2014,05,01,15,16,23.80
2014,05,01,15,17,23.90
2014,05,01,15,18,24.00
2014,05,01,15,19,24.10
2014,05,01,15,20,24.10
2014,05,01,15,21,24.10
2014,05,01,15,22,24.10
2014,05,01,15,23,24.10
2014,05,01,15,24,24.10
2014,05,01,15,25,24.10
2014,05,01,15,26,24.10
2014,05,01,15,27,24.20
2014,05,01,15,28,24.20
2014,05,01,15,29,24.30
2014,05,01,15,30,24.40
2014,05,01,15,31,24.40
2014,05,01,15,32,24.50
2014,05,01,15,33,24.50
2014,05,01,15,34,24.60
2014,05,01,15,35,24.60
2014,05,01,15,36,24.60
2014,05,01,15,37,24.50
2014,05,01,15,38,24.40
2014,05,01,15,39,24.40
2014,05,01,15,40,24.40
2014,05,01,15,41,24.50
2014,05,01,15,42,24.50
2014,05,01,15,43,24.50
2014,05,01,15,44,24.50
2014,05,01,15,45,24.40
2014,05,01,15,46,24.40
2014,05,01,15,47,24.40
2014,05,01,15,48,24.40
2014,05,01,15,49,24.40
2014,05,01,15,50,24.50
2014,05,01,15,51,24.50
2014,05,01,15,52,24.50
2014,05,01,15,53,24.60
2014,05,01,15,54,24.60
2014,05,01,15,55,24.60
2014,05,01,15,56,24.60
2014,05,01,15,57,24.60
2014,05,01,15,58,24.60
2014,05,01,15,59,24.60
2014,05,01,16,00,24.60
2014,05,01,16,01,24.70
2014,05,01,16,02,24.70
2014,05,01,16,03,24.80
2014,05,01,16,04,24.90
2014,05,01,16,05,24.90
2014,05,01,16,06,25.00
2014,05,01,16,07,25.00
2014,05,01,16,08,25.10
2014,05,01,16,09,25.10
2014,05,01,16,10,25.20
2014,05,01,16,11,25.20
2014,05,01,16,12,25.20
2014,05,01,16,13,25.20
2014,05,01,16,14,25.20
2014,05,01,16,15,25.20
2014,05,01,16,16,25.20
2014,05,01,16,17,25.20
2014,05,01,16,18,25.20
2014,05,01,16,19,25.20
2014,05,01,16,20,25.30
2014,05,01,16,21,25.40
2014,05,01,16,22,25.40
2014,05,01,16,23,25.50
2014,05,01,16,24,25.50
2014,05,01,16,25,25.60
2014,05,01,16,26,25.60
2014,05,01,16,27,25.60
2014,05,01,16,28,25.60
2014,05,01,16,29,25.60
2014,05,01,16,30,25.70
2014,05,01,16,31,25.70
2014,05,01,16,32,25.80
2014,05,01,16,33,25.80
2014,05,01,16,34,25.70
2014,05,01,16,35,25.70
2014,05,01,16,36,25.70
2014,05,01,16,37,25.70
2014,05,01,16,38,25.70
2014,05,01,16,39,25.70
2014,05,01,16,40,25.70
2014,05,01,16,41,25.70
2014,05,01,16,42,25.70
2014,05,01,16,43,25.70
2014,05,01,16,44,25.70
2014,05,01,16,45,25.60
2014,05,01,16,46,25.60
2014,05,01,16,47,25.60
2014,05,01,16,48,25.60
2014,05,01,16,49,25.60
2014,05,01,16,50,25.60
2014,05,01,16,51,25.60
2014,05,01,16,52,25.60
2014,05,01,16,53,25.50
2014,05,01,16,54,25.40
2014,05,01,16,55,25.40
2014,05,01,16,56,25.40
2014,05,01,16,57,25.40
2014,05,01,16,58,25.40
2014,05,01,16,59,25.40
2014,05,01,17,00,25.40
2014,05,01,17,01,25.50
2014,05,01,17,02,25.40
2014,05,01,17,03,25.40
2014,05,01,17,04,25.30
2014,05,01,17,05,25.30
2014,05,01,17,06,25.20
2014,05,01,17,07,25.20
2014,05,01,17,08,25.20
2014,05,01,17,09,25.20
2014,05,01,17,10,25.10
2014,05,01,17,11,25.00
2014,05,01,17,12,25.00
2014,05,01,17,13,25.00
2014,05,01,17,14,25.00
2014,05,01,17,15,25.10
2014,05,01,17,16,25.10
2014,05,01,17,17,25.10
2014,05,01,17,18,25.10
2014,05,01,17,19,25.00